Location: Drawsko Pomorskie
(53.5317°N, 15.8111°E)
Time: 15:29:23
(UTC+01:00)

ISS - Pass Details

Date: 24 January 2019
Orbit: 403 x 411 km, 51.6° (Epoch: 20 February)

Event Time Altitude Azimuth Distance (km) Brightness Sun altitude
Rises 19:19:04 0° 232° (SW) 2,332 0.8 -25.7°
Reaches altitude 10° 19:21:16 10° 222° (SW) 1,475 -0.5 -26.0°
Enters shadow 19:21:51 14° 217° (SW) 1,262 -1.0 -26.1°
